Flag for Germany Weather past 2 weeks in Leipzig, Saxony, Germany

Now
57 °F

Light rain. Passing clouds.


Feels Like: 54 °F
Forecast: 50 / 68 °F
Wind: 13 mph from Southwest

Location: Leipzig-Schkeuditz

Current Time: Apr 26, 2015 at 12:01:41 AM

Latest Report: Apr 25, 2015 at 11:20 PM


Visibility: N/A

Pressure: 29.77 "Hg

Humidity: 77%

Dew point: 50 °F

Location of LeipzigLocation

Historic Weather in Leipzig — Graph

°F

Leipzig temperature yesterday

Maximum temperature yesterday: 70 °F (at 12:50 PM)
Minimum temperature yesterday: 46 °F (at 4:20 AM)
Average temperature yesterday: 59 °F

Past Weeks' High & Low Weather Summary

 TemperatureHumidityPressure
High73 °F (Apr 15, 2:50 PM)100% (Apr 18, 6:50 AM)30.45 "Hg (Apr 18, 6:50 AM)
Low34 °F (Apr 18, 5:50 AM)23% (Apr 21, 3:50 PM)29.74 "Hg (Apr 25, 3:50 PM)
Average51 °F62%30.14 "Hg
* Reported Apr 10 10:20 PM — Apr 25 10:20 PM, Leipzig, Weather by CustomWeather, © 2015

Note: Actual official high and low records may vary slightly from our data, if they occured in-between our weather recording intervals... More about our weather records

Advertising

Leipzig weather history for previous 24 hours

 ConditionsComfort  
Time TempWeatherWind HumidityBarometerVisibility
10:20 PM
Sat, Apr 25
57 °FPassing clouds.9 mph72%29.77 "HgN/A
9:50 PM57 °FClear.8 mph72%29.77 "Hg10 mi
9:20 PM59 °FSunny.7 mph68%29.77 "Hg10 mi
8:50 PM59 °FLight rain. Mostly cloudy.9 mph68%29.77 "HgN/A
8:20 PM61 °FLight rain. Clear.7 mph59%29.77 "HgN/A
7:50 PM63 °FSunny.5 mph52%29.74 "Hg10 mi
7:20 PM63 °FSunny.5 mph52%29.74 "Hg10 mi
6:50 PM64 °FSunny.7 mph49%29.74 "Hg10 mi
6:20 PM64 °FSunny.9 mph46%29.74 "Hg10 mi
5:50 PM64 °FSunny.12 mph46%29.77 "Hg10 mi
5:20 PM64 °FSunny.15 mph43%29.77 "Hg10 mi
4:50 PM64 °FSunny.18 mph40%29.74 "Hg10 mi
4:20 PM68 °FSunny.16 mph33%29.74 "Hg10 mi
3:50 PM68 °FSunny.14 mph33%29.74 "Hg10 mi
3:20 PM68 °FSunny.10 mph33%29.77 "Hg10 mi
2:50 PM68 °FSunny.15 mph33%29.77 "Hg10 mi
2:20 PM70 °FSunny.12 mph33%29.77 "Hg10 mi
1:50 PM70 °FSunny.14 mph31%29.77 "Hg10 mi
1:20 PM70 °FSunny.13 mph31%29.77 "Hg10 mi
12:50 PM70 °FSunny.12 mph31%29.77 "Hg10 mi
12:20 PM68 °FSunny.12 mph35%29.80 "Hg10 mi
11:50 AM66 °FSunny.12 mph40%29.80 "Hg10 mi
11:20 AM64 °FSunny.10 mph46%29.80 "Hg10 mi
10:50 AM63 °FSunny.12 mph49%29.80 "Hg10 mi
10:20 AM61 °FSunny.12 mph48%29.83 "Hg10 mi
9:50 AM59 °FSunny.13 mph51%29.83 "Hg10 mi
9:20 AM57 °FSunny.13 mph51%29.83 "Hg10 mi
8:50 AM55 °FSunny.14 mph55%29.83 "Hg10 mi
8:20 AM54 °FSunny.13 mph58%29.83 "Hg10 mi
7:50 AM52 °FSunny.13 mph62%29.83 "Hg10 mi
7:20 AM50 °FSunny.12 mph62%29.83 "Hg10 mi
6:50 AM48 °FClear.10 mph66%29.83 "Hg10 mi
6:20 AM46 °FClear.10 mph71%29.83 "Hg10 mi
5:20 AM46 °FClear.10 mph71%29.83 "Hg10 mi
4:50 AM46 °FClear.12 mph71%29.83 "Hg10 mi
4:20 AM46 °FClear.12 mph71%29.83 "Hg10 mi
3:50 AM48 °FClear.12 mph66%29.83 "Hg10 mi
3:20 AM48 °FClear.10 mph66%29.83 "Hg10 mi
2:50 AM50 °FClear.9 mph62%29.83 "Hg10 mi
2:20 AM50 °FClear.9 mph62%29.86 "Hg10 mi
1:50 AM54 °FClear.9 mph54%29.86 "Hg10 mi
1:20 AM54 °FClear.9 mph54%29.86 "Hg10 mi
12:50 AM54 °FClear.9 mph54%29.86 "Hg10 mi
12:20 AM54 °FClear.8 mph58%29.86 "Hg10 mi
Weather by CustomWeather, © 2015

See weather overviewHow to use our weather pages